Regional Weather Roundup
Issued by NWS

Home | Current Version | Previous Version | Graphics & Text | Print | Product List | Glossary On
Versions: 1 2 3 4 5 6 7 8 9 10 11 12 13 14 15 16 17 18 19 20 21 22 23 24 25 26 27 28 29 30 31 32 33 34 35 36 37 38 39 40 41 42 43 44 45 46 47 48 49 50
161
ASUS45 KPSR 252110
RWRAZ

ARIZONA HOURLY REGIONAL WEATHER ROUNDUP
NATIONAL WEATHER SERVICE PHOENIX AZ
200 PM MST WED APR 25 2018

NOTE: FAIR INDICATES FEW OR NO CLOUDS BELOW 12,000 FEET WITH NO
SIGNIFICANT WEATHER AND/OR OBSTRUCTIONS TO VISIBILITY.

AZZ001>003-036-252200-
NORTHWEST ARIZONA

CITY           SKY/WX    TMP DP  RH WIND       PRES   REMARKS
KINGMAN        SUNNY     90  23   9 VRB5      30.05F
$$

AZZ004>008-015-016-018-252200-
NORTH CENTRAL ARIZONA

CITY           SKY/WX    TMP DP  RH WIND       PRES   REMARKS
GRAND CANYON   SUNNY     72  17  12 NW12G21   30.25F
WILLIAMS       SUNNY     73  14  10 NW10      30.22F
PRESCOTT       SUNNY     81  18   9 NW12      30.13F
FLAGSTAFF      SUNNY     71  21  15 VRB3      30.25F
PAYSON         SUNNY     81  16   9 NW9G18    30.13F
PAGE           SUNNY     74  16  11 VRB6      30.15F
$$

AZZ009>014-017-252200-
NORTHEAST ARIZONA

CITY           SKY/WX    TMP DP  RH WIND       PRES   REMARKS
WINSLOW        SUNNY     79  20  11 MISG      30.16F
SAINT JOHNS    SUNNY     77  17  10 N12       30.15F
WINDOW ROCK    SUNNY     74  11   9 NW14      30.21F
SHOW LOW       SUNNY     73  14  10 N6G17     30.23S
$$

AZZ540-542>544-546-548-252200-
GREATER PHOENIX AREA

CITY           SKY/WX    TMP DP  RH WIND       PRES   REMARKS
PHOENIX        MOSUNNY   96  27   8 VRB6      29.89F
BUCKEYE        SUNNY     93  28  10 S7        29.91F
GLENDALE       MOSUNNY   95  27   8 CALM      29.92
LUKE AFB       SUNNY     95  24   8 S8        29.89F
DEER VALLEY    SUNNY     93  24   8 SW7       29.91F
SCOTTSDALE     SUNNY     94  31  10 S12       29.93F
MESA-FALCON    SUNNY     93  32  11 SW7       29.93F
MESA-GATEWAY   MOSUNNY   95  28   9 SW12      29.93F
CHANDLER       SUNNY     93  27   9 W9        29.92F
$$

AZZ539-553-252200-
SOUTHWEST MARICOPA COUNTY AND PINAL COUNTY

CITY           SKY/WX    TMP DP  RH WIND       PRES   REMARKS
CASA GRANDE    SUNNY     93  28  10 W7        29.94
GILA BEND      FAIR      95  24   8 W7        29.89F
$$

AZZ503-504-507>509-252200-
SOUTHEAST ARIZONA

CITY           SKY/WX    TMP DP  RH WIND       PRES   REMARKS
TUCSON         SUNNY     94  20   7 SW3       30.00F
DAVIS-MONTHAN  SUNNY     94  21   7 S7        29.98F
NOGALES        SUNNY     88  17   7 VRB7G18   30.07F
SIERRA VISTA   SUNNY     85  20   9 N8        30.11
DOUGLAS        SUNNY     87  21   9 S10G18    30.07F
SAFFORD        SUNNY     90  14   6 SW7       29.98F
$$

AZZ532-252200-
SOUTHWEST ARIZONA

CITY           SKY/WX    TMP DP  RH WIND       PRES   REMARKS
YUMA           MOSUNNY   94  37  13 W6        29.89F
$$

CAZ041-043-047-048-061-525>527-560>570-252200-
SOUTHERN CALIFORNIA

CITY           SKY/WX    TMP DP  RH WIND       PRES   REMARKS
DOWNTOWN L.A.  SUNNY     66  50  56 CALM      30.05F
L.A. AIRPORT   MOSUNNY   62  50  64 W12       30.07F
SAN DIEGO      MOSUNNY   66  52  60 W13       30.08F
BURBANK        SUNNY     73  52  47 S9        30.03F
ONTARIO        MOSUNNY   78  47  33 W13G20    30.03F
RIVERSIDE      SUNNY     80  46  30 W12G20    30.02F
PALM SPRINGS   SUNNY     99  21   6 NW17G24   29.89F
EL CENTRO NAS  MOSUNNY   96  20   6 SE8       29.88F
IMPERIAL       SUNNY     96  14   5 W3        29.86F
BLYTHE         SUNNY     97  32  10 S7        29.88F
NEEDLES        SUNNY     99  16   5 VRB5      29.90F
$$

NVZ020-UTZ003-252200-
SOUTHERN NEVADA-UTAH

CITY           SKY/WX    TMP DP  RH WIND       PRES   REMARKS
LAS VEGAS      MOSUNNY   88  23   9 W3        30.00F
SALT LAKE CITY MOSUNNY   73  19  13 N8        30.15F
$$

NMZ009-TXZ055-252200-
NEW MEXICO-WEST TEXAS

CITY           SKY/WX    TMP DP  RH WIND       PRES   REMARKS
ALBUQUERQUE    MOSUNNY   68  30  24 N3        30.19F
EL PASO        MOSUNNY   72  38  29 SE10      30.15F
$$


........................KEY........................
SKY/WX - SKY CONDITION/WEATHER
TMP    - TEMPERATURE IN FAHRENHEIT
DP     - DEW POINT IN FAHRENHEIT
RH     - RELATIVE HUMIDITY IN PERCENT
WIND   - DIRECTION AND SPEED IN MILES PER HOUR (MPH)
VRB    - VARIABLE WIND DIRECTION
PRES   - MEAN SEA LEVEL PRESSURE IN INCHES OF MERCURY
         F - FALLING PRESSURE   R - RISING PRESSURE
         S - STEADY PRESSURE
VSB    - VISIBILITY IN MILES
HX     - HEAT INDEX IN FAHRENHEIT
WCI    - WIND CHILL INDEX IN FAHRENHEIT
TC     - TEMPERATURE IN CELSIUS WHICH IS ALSO KNOWN AS
         TEMPERATURE IN CENTIGRADE
AFB    - AIR FORCE BASE
         LUKE AFB IS LUKE AIR FORCE BASE
         DAVIS-MONTHAN IS DAVIS-MONTHAN AIR FORCE BASE
NAS    - NAVAL AIR STATION
         EL CENTRO NAS IS EL CENTRO NAVAL AIR STATION
N/A    - NOT AVAILABLE





USA.gov is the U.S. government's official web portal to all federal, state and local government web resources and services.